Location: Anciles
(42.5833°N, 0.5167°E)
Time: 04:13:20
(UTC+00:00)

Cosmos 2219 Rocket - Pass Details

Date: 10 December 2019
Orbit: 826 x 848 km, 71.0° (Epoch: 17 January)

Event Time Altitude Azimuth Distance (km) Brightness Sun altitude
Rises 17:42:57 0° 237° (WSW) 3,365 7.0 -13.9°
Reaches altitude 10° 17:45:45 10° 250° (WSW) 2,438 6.0 -14.4°
Maximum altitude 17:50:26 27° 307° (NW) 1,570 4.0 -15.2°
Drops below altitude 10° 17:55:09 10° 4° (N) 2,462 4.4 -16.1°
Enters shadow 17:57:18 - 14° (NNE) 3,161 4.9 -16.4°
